Regional Weather Roundup
Issued by NWS Newport/Morehead, NC

Current Version | Previous Version | Graphics & Text | Print | Product List | Glossary Off
Versions: 1 2 3 4 5 6 7 8 9 10 11 12 13 14 15 16 17 18 19 20 21 22 23 24 25 26 27 28 29 30 31 32 33 34 35 36 37 38 39 40 41 42 43 44 45 46 47 48 49 50

000
ASUS42 KMHX 252113
RWRMHX
WEATHER ROUNDUP FOR EASTERN NORTH CAROLINA
NATIONAL WEATHER SERVICE NEWPORT/MOREHEAD CITY NC
500 PM EDT MON SEP 25 2017

NOTE: "FAIR" INDICATES FEW OR NO CLOUDS BELOW 12,000 FEET
WITH NO SIGNIFICANT WEATHER AND/OR OBSTRUCTIONS TO VISIBILITY

NCZ015>017-031-032-045>047-102-103-252200-
NORTH COAST

CITY           SKY/WX    TMP DP  RH WIND       PRES   REMARKS
EDENTON        CLOUDY    79  70  74 NE12      29.92F
ELIZABETH CITY CLOUDY    74  71  91 NE20G25   29.93S
KITTY HAWK     CLOUDY    71  67  86 N8G21     29.89F
MANTEO         CLOUDY    73  69  88 NE17      29.90F

$$

NCZ045>047-081-094-103-104-252200-
CENTRAL COAST

CITY           SKY/WX    TMP DP  RH WIND       PRES   REMARKS
FRISCO         CLOUDY    77  74  90 NE15G26   29.83F

$$

NCZ095-097-098-100-101-252200-
SOUTHERN COAST

CITY           SKY/WX    TMP DP  RH WIND       PRES   REMARKS
BEAUFORT       CLOUDY    77  74  90 N20G26    29.82F
CEDAR ISLAND   NOT AVBL
JACKSONVILLE   CLOUDY    79  72  79 N14       29.85S
PINEY ISLAND   FLURRIES N/A N/A N/A N23G32    29.84S
WILMINGTON     CLOUDY    79  71  76 N10       29.85S


$$

NCZ011>013-027>030-043-044-078>080-089-090>093-098-252200-
COASTAL PLAIN

CITY           SKY/WX    TMP DP  RH WIND       PRES   REMARKS
AHOSKIE        MOSUNNY   79  68  68 N9G17     29.93S
CLINTON        PTSUNNY   80  70  73 N7        29.90F
ELIZABETHTOWN  NOT AVBL
GOLDSBORO      PTSUNNY   80  73  77 NE13      29.88F
GREENVILLE     PTSUNNY   81  68  65 NE8G16    29.92F
HAVELOCK       CLOUDY    79  73  82 N17       29.85F
KENANSVILLE    CLOUDY    79  70  73 N10       29.89S
KINSTON        PTSUNNY   82  68  61 NE14G22   29.90
NEW BERN       CLOUDY    78  72  81 NE14G22   29.88S
RICHLANDS      CLOUDY    78  71  79 N7        29.88S
ROCKY MOUNT    MOSUNNY   82  69  64 N9        29.92F
WASHINGTON     CLOUDY    82  70  67 NE14      29.89F
WHITEVILLE     CLOUDY    77  69  78 N3        29.89S

$$

AMZ130-135-150-152-154-156-158-170-250-252-270-ANZ085-086-088-633-658-670-252200-
MARINE OBSERVATIONS

STATION/POSITION TIME  TEMP    WIND        PRES    WAVE   SWELL
                       AIR SEA DIR/SP/G            HT/PER HT/PER
                 (UTC) (F)     (DEG/KT/KT) (MB)    (FT/S) (FT/S)
CHESAPEAKE LIGHT NOT AVBL
64 E VA BEACH    2050   71 71   40/ 17/ 21 1013.1   14/13  13/13
DUCK             2042   72 77   30/ 23/ 27 1012.5
2 E DUCK         2100      76                N/A     8/13   5/13
OREGON INLET     2042   73 76   20/ 18/ 23 1011.6
13E OREGON INLT  2048      75                N/A    11/13  11/13
HATTERAS CG      2042   75 77   30/ 20/ 25 1010.1
DIAMOND BUOY     2050   75 79   30/ 25/ 31 1008.5   15/14  15/14
CAPE LOOKOUT     2100   77      10/ 21/ 25 1009.5
BEAUFORT LAB     2042   77 75   20/ 14/ 21 1009.4
30 SE NEW RVR IN 2008   79      30/ 21/ 29 1008.8
30 SE NEW RVR IN NOT AVBL
27 SE WRIGHTSVLE 2008   79 80   30/ 19/ 25 1009.1
5 SE WRIGHTSVLE  2008   79 78   10/ 12/ 19 1010.2
225 S CAPE HAT   2050   81 81  360/ 35/ 45  993.3   21/11  15/11
41 SE CHARLESTON 2050   76 81  350/ 17/ 21 1010.1   10/13   8/13

$$



USA.gov is the U.S. government's official web portal to all federal, state and local government web resources and services.